Location: Altmatt
(47.1333°N, 8.7000°E)
Time: 01:39:03
(UTC+00:00)

Cosmos 2184 Rocket - Pass Details

Date: 13 July 2020
Orbit: 960 x 1001 km, 82.9° (Epoch: 11 August)

Event Time Altitude Azimuth Distance (km) Brightness Sun altitude
Exits shadow 20:43:22 - 184° (S) 3,313 6.4 -11.5°
Reaches altitude 10° 20:44:56 10° 184° (S) 2,725 5.9 -11.7°
Maximum altitude 20:51:12 86° 97° (E) 997 4.0 -12.4°
Drops below altitude 10° 20:57:34 10° 10° (N) 2,771 7.0 -13.0°
Sets 21:00:07 0° 10° (N) 3,729 7.8 -13.3°
